This demonstration page uses our WeatherBlox Daily Observations layout. Learn more.

Left ArrowRight Arrow

Hourly Observations for January 16, 2022

Temp ( °F °C ) Dew Point ( °F °C ) Humidity (%) Winds ( mph kmh ) Pressure ( in mb ) Visibility ( mi km ) Precip ( " mm )
12:53 am 00:53 Mostly Cloudy 31 -0.6 22 -5.6 69 69 NNW 14 22 30.22 1023 10 16 0.00 0.00
1:53 am 01:53 Mostly Clear 32 0 22 -5.6 66 66 NNW 15 24 30.16 1022 10 16 0.00 0.00
2:53 am 02:53 Clear 31 -0.6 22 -5.6 69 69 NNW 13 20 30.18 1022 10 16 0.00 0.00
3:53 am 03:53 Mostly Clear 29 -1.7 22 -5.6 75 75 NW 14 22 30.17 1022 10 16 0.00 0.00
4:53 am 04:53 Clear 29 -1.7 21 -6.1 72 72 NW 13 20 30.16 1021 10 16 0.00 0.00
5:53 am 05:53 Clear 28 -2.2 22 -5.6 78 78 NW 10 17 30.16 1021 10 16 0.00 0.00
6:53 am 06:53 Clear 27 -2.8 22 -5.6 81 81 NNW 8 13 30.16 1022 10 16 0.00 0.00
7:53 am 07:53 Sunny 27 -2.8 22 -5.6 81 81 NW 8 13 30.16 1022 10 16 0.00 0.00
8:53 am 08:53 Sunny 31 -0.6 23 -5 72 72 NW 8 13 30.17 1022 10 16 0.00 0.00
9:53 am 09:53 Sunny 33 0.6 23 -5 66 66 NNW 10 17 30.17 1022 10 16 0.00 0.00
10:53 am 10:53 Sunny 37 2.8 24 -4.4 59 59 WNW 10 17 30.17 1022 10 16 0.00 0.00
11:53 am 11:53 Sunny 42 5.6 26 -3.3 53 53 NW 7 11 30.15 1021 10 16 0.00 0.00
12:53 pm 12:53 Sunny 45 7.2 27 -2.8 49 49 NW 8 13 30.11 1020 10 16 0.00 0.00
1:53 pm 13:53 Sunny 48 8.9 26 -3.3 42 42 VRB 6 9 30.06 1018 10 16 0.00 0.00
2:53 pm 14:53 Sunny 50 10 25 -3.9 38 38 VRB 5 7 30.04 1017 10 16 0.00 0.00
3:53 pm 15:53 Sunny 52 11.1 22 -5.6 31 31 NNW 7 11 30.04 1017 10 16 0.00 0.00
4:53 pm 16:53 Sunny 52 11.1 22 -5.6 31 31 NNW 3 6 30.03 1017 10 16 0.00 0.00
5:53 pm 17:53 Clear 49 9.4 22 -5.6 35 35 SW 3 6 30.02 1017 10 16 0.00 0.00
6:53 pm 18:53 Clear 43 6.1 24 -4.4 47 47 Calm 30.03 1017 10 16 0.00 0.00
7:53 pm 19:53 Clear 39 3.9 25 -3.9 57 57 Calm 30.06 1018 10 16 0.00 0.00
8:53 pm 20:53 Clear 38 3.3 26 -3.3 62 62 Calm 30.07 1018 10 16 0.00 0.00
9:53 pm 21:53 Mostly Clear 37 2.8 27 -2.8 67 67 Calm 30.09 1019 10 16 0.00 0.00
10:53 pm 22:53 Mostly Clear 35 1.7 26 -3.3 70 70 Calm 30.11 1020 10 16 0.00 0.00
11:53 pm 23:53 Clear 35 1.7 26 -3.3 70 70 Calm 30.11 1020 10 16 0.00 0.00

Powered by AerisWeather